| time (UTC) | temp F | wind direction | speed knots | gust knots | rain 1hr in | rain 24hr in | rain mn in | humidity % | barometer mb |
| 20260831082705 | 64 | 267 | 1.7 | 6.1 | 0.00 | 0.04 | 0.01 | 79 | 1008.3 |
| 20260831082016 | 63 | 262 | 1.7 | 5.2 | 0.00 | 0.04 | 0.01 | 80 | 1008.2 |
| 20260831080905 | 63 | 248 | 1.7 | 6.1 | 0.00 | 0.04 | 0.01 | 79 | 1008.1 |
| 20260831080004 | 63 | 272 | 1.7 | 6.1 | 0.00 | 0.04 | 0.01 | 80 | 1007.9 |
| 20260831075405 | 63 | 257 | 1.7 | 7.0 | 0.00 | 0.04 | 0.01 | 80 | 1007.9 |
| 20260831074504 | 62 | 254 | 1.7 | 6.1 | 0.00 | 0.04 | 0.01 | 81 | 1007.8 |
| 20260831073603 | 62 | 253 | 0.9 | 8.7 | 0.00 | 0.04 | 0.01 | 81 | 1007.5 |
| 20260831072705 | 62 | 245 | 0.9 | 3.5 | 0.00 | 0.04 | 0.01 | 82 | 1007.4 |
| 20260831071803 | 61 | 259 | 1.7 | 5.2 | 0.00 | 0.04 | 0.01 | 83 | 1007.2 |
| 20260831070905 | 60 | 235 | 0.9 | 7.0 | 0.00 | 0.04 | 0.01 | 84 | 1007.2 |
| 20260831070004 | 60 | 245 | 1.7 | 4.3 | 0.00 | 0.04 | 0.01 | 85 | 1007.1 |
| 20260831065618 | 60 | 241 | 0.9 | 4.3 | 0.00 | 0.04 | 0.01 | 85 | 1007.0 |
| 20260831064505 | 59 | 229 | 0.9 | 5.2 | 0.00 | 0.04 | 0.01 | 87 | 1006.9 |
| 20260831063605 | 58 | 226 | 0.9 | 4.3 | 0.00 | 0.04 | 0.01 | 87 | 1006.8 |
| 20260831062704 | 58 | 257 | 0.9 | 3.5 | 0.00 | 0.04 | 0.01 | 88 | 1006.8 |
| 20260831061804 | 58 | 243 | 0.9 | 3.5 | 0.00 | 0.04 | 0.01 | 88 | 1006.6 |
| 20260831060903 | 58 | 251 | 0.9 | 5.2 | 0.00 | 0.04 | 0.01 | 89 | 1006.5 |
| 20260831060003 | 57 | 232 | 0.9 | 3.5 | 0.00 | 0.04 | 0.01 | 89 | 1006.3 |
| 20260831055406 | 57 | 238 | 0.9 | 4.3 | 0.00 | 0.04 | 0.01 | 90 | 1006.2 |
| 20260831054504 | 57 | 241 | 0.9 | 3.5 | 0.00 | 0.04 | 0.01 | 89 | 1006.1 |
| 20260831053605 | 57 | 214 | 0.9 | 4.3 | 0.00 | 0.04 | 0.01 | 89 | 1006.0 |
| 20260831052705 | 57 | 256 | 0.9 | 3.5 | 0.00 | 0.04 | 0.01 | 89 | 1005.9 |
| 20260831051805 | 57 | 207 | 0.9 | 6.1 | 0.00 | 0.04 | 0.01 | 89 | 1005.9 |
| 20260831050906 | 57 | 258 | 0.9 | 5.2 | 0.00 | 0.04 | 0.01 | 89 | 1005.6 |
| 20260831050003 | 57 | 268 | 0.0 | 3.5 | 0.00 | 0.04 | 0.01 | 89 | 1005.5 |
| 20260831045403 | 57 | 266 | 0.9 | 5.2 | 0.00 | 0.04 | 0.01 | 89 | 1005.4 |
| 20260831044503 | 58 | 245 | 0.0 | 5.2 | 0.00 | 0.04 | 0.01 | 89 | 1005.3 |
| 20260831043606 | 58 | 220 | 0.9 | 3.5 | 0.00 | 0.04 | 0.01 | 89 | 1005.4 |
| 20260831042703 | 58 | 187 | 0.0 | 3.5 | 0.00 | 0.04 | 0.01 | 88 | 1005.2 |
| 20260831041807 | 58 | 202 | 0.9 | 3.5 | 0.00 | 0.04 | 0.01 | 88 | 1005.2 |
| 20260831040003 | 58 | 210 | 0.9 | 5.2 | 0.00 | 0.04 | 0.01 | 87 | 1005.1 |
| 20260831035405 | 59 | 245 | 0.9 | 6.1 | 0.00 | 0.04 | 0.01 | 87 | 1005.1 |
| 20260831034503 | 59 | 236 | 0.9 | 5.2 | 0.00 | 0.04 | 0.01 | 88 | 1005.1 |
| 20260831033603 | 59 | 239 | 0.9 | 4.3 | 0.00 | 0.04 | 0.01 | 88 | 1005.1 |
| 20260831032703 | 59 | 229 | 0.9 | 8.7 | 0.00 | 0.04 | 0.01 | 88 | 1005.1 |
| 20260831031805 | 59 | 248 | 0.9 | 6.1 | 0.00 | 0.04 | 0.01 | 88 | 1005.0 |
| 20260831031117 | 60 | 254 | 0.9 | 6.1 | 0.00 | 0.04 | 0.01 | 89 | 1004.9 |
| 20260831030003 | 60 | 239 | 0.9 | 5.2 | 0.00 | 0.04 | 0.01 | 89 | 1004.8 |
| 20260831025405 | 60 | 233 | 0.9 | 6.1 | 0.00 | 0.04 | 0.01 | 89 | 1005.0 |
| 20260831024507 | 60 | 217 | 1.7 | 6.1 | 0.00 | 0.04 | 0.01 | 89 | 1004.7 |
| 20260831023605 | 60 | 218 | 0.9 | 5.2 | 0.00 | 0.04 | 0.01 | 89 | 1004.6 |
| 20260831022703 | 60 | 215 | 0.9 | 7.0 | 0.00 | 0.04 | 0.01 | 89 | 1004.5 |
| 20260831022015 | 60 | 197 | 1.7 | 7.0 | 0.00 | 0.04 | 0.01 | 90 | 1004.4 |
| 20260831020903 | 60 | 248 | 0.9 | 3.5 | 0.00 | 0.04 | 0.01 | 90 | 1004.3 |
| 20260831020215 | 60 | 211 | 0.9 | 3.5 | 0.00 | 0.04 | 0.01 | 90 | 1004.3 |
| 20260831015616 | 60 | 233 | 1.7 | 5.2 | 0.00 | 0.04 | 0.01 | 90 | 1004.2 |
| 20260831014504 | 60 | 198 | 0.9 | 5.2 | 0.00 | 0.04 | 0.01 | 90 | 1004.3 |
| 20260831013605 | 60 | 212 | 1.7 | 5.2 | 0.00 | 0.04 | 0.01 | 90 | 1004.3 |
| 20260831012703 | 60 | 191 | 0.9 | 5.2 | 0.00 | 0.04 | 0.01 | 91 | 1004.4 |
| 20260831012016 | 60 | 166 | 1.7 | 6.1 | 0.00 | 0.04 | 0.01 | 90 | 1004.2 |
| 20260831010903 | 60 | 147 | 0.9 | 6.1 | 0.01 | 0.04 | 0.01 | 90 | 1004.5 |
| 20260831010005 | 60 | 149 | 0.9 | 6.1 | 0.01 | 0.04 | 0.01 | 90 | 1004.5 |
| 20260831005406 | 60 | 155 | 0.9 | 4.3 | 0.01 | 0.04 | 0.01 | 90 | 1004.4 |
| 20260831004506 | 60 | 145 | 0.9 | 4.3 | 0.01 | 0.04 | 0.01 | 90 | 1004.5 |
| 20260831003603 | 60 | 158 | 1.7 | 7.0 | 0.01 | 0.04 | 0.01 | 90 | 1004.6 |
| 20260831002705 | 61 | 158 | 0.9 | 8.7 | 0.01 | 0.04 | 0.01 | 89 | 1004.6 |
| 20260831001805 | 61 | 157 | 0.9 | 8.7 | 0.01 | 0.04 | 0.01 | 89 | 1004.5 |
| 20260831000904 | 61 | 151 | 0.9 | 5.2 | 0.00 | 0.03 | 0.00 | 88 | 1004.7 |
| 20260831000005 | 60 | 176 | 0.9 | 4.3 | 0.00 | 0.03 | 0.00 | 89 | 1005.0 |
| 20260830235405 | 60 | 180 | 0.0 | 3.5 | 0.00 | 0.03 | 0.00 | 89 | 1004.9 |
| 20260830234505 | 60 | 182 | 0.9 | 6.1 | 0.00 | 0.03 | 0.00 | 89 | 1005.0 |
| 20260830233605 | 60 | 167 | 0.9 | 5.2 | 0.00 | 0.03 | 0.00 | 89 | 1005.1 |
| 20260830232705 | 60 | 175 | 0.9 | 4.3 | 0.00 | 0.03 | 0.00 | 88 | 1005.2 |
| 20260830231805 | 60 | 181 | 0.0 | 1.7 | 0.00 | 0.03 | 0.00 | 87 | 1005.2 |
| 20260830230903 | 61 | 183 | 0.0 | 2.6 | 0.00 | 0.03 | 0.00 | 87 | 1005.4 |
| 20260830230017 | 61 | 173 | 0.0 | 4.3 | 0.00 | 0.03 | 0.00 | 87 | 1005.5 |
| 20260830225405 | 61 | 164 | 0.9 | 5.2 | 0.00 | 0.03 | 0.03 | 87 | 1005.5 |
| 20260830224503 | 61 | 197 | 0.9 | 6.1 | 0.00 | 0.03 | 0.03 | 87 | 1005.6 |
| 20260830223604 | 61 | 187 | 0.9 | 6.1 | 0.00 | 0.03 | 0.03 | 87 | 1005.7 |
| 20260830222705 | 61 | 165 | 0.9 | 4.3 | 0.00 | 0.03 | 0.03 | 87 | 1005.9 |
| 20260830221803 | 61 | 190 | 0.9 | 2.6 | 0.00 | 0.03 | 0.03 | 86 | 1006.0 |
| 20260830220903 | 61 | 199 | 0.9 | 2.6 | 0.00 | 0.03 | 0.03 | 86 | 1006.0 |
| 20260830220004 | 61 | 207 | 0.0 | 3.5 | 0.00 | 0.03 | 0.03 | 86 | 1006.0 |
| 20260830215405 | 62 | 198 | 0.9 | 4.3 | 0.00 | 0.03 | 0.03 | 85 | 1006.0 |
| 20260830214503 | 62 | 227 | 1.7 | 7.0 | 0.00 | 0.03 | 0.03 | 85 | 1006.2 |
| 20260830213603 | 62 | 220 | 1.7 | 7.0 | 0.03 | 0.03 | 0.03 | 85 | 1006.1 |
| 20260830212703 | 62 | 216 | 1.7 | 7.0 | 0.03 | 0.03 | 0.03 | 85 | 1005.9 |
| 20260830211803 | 62 | 184 | 0.9 | 7.0 | 0.03 | 0.03 | 0.03 | 86 | 1005.8 |
| 20260830210903 | 63 | 201 | 1.7 | 6.1 | 0.03 | 0.03 | 0.03 | 87 | 1005.7 |
| 20260830210005 | 63 | 157 | 1.7 | 6.1 | 0.03 | 0.03 | 0.03 | 87 | 1005.9 |
| 20260830205405 | 64 | 149 | 1.7 | 6.1 | 0.03 | 0.03 | 0.03 | 86 | 1006.0 |
| 20260830204508 | 64 | 164 | 1.7 | 7.8 | 0.03 | 0.03 | 0.03 | 86 | 1006.0 |
| 20260830203603 | 64 | 157 | 0.9 | 4.3 | 0.00 | 0.00 | 0.00 | 83 | 1005.9 |
| 20260830202704 | 64 | 144 | 0.0 | 1.7 | 0.00 | 0.00 | 0.00 | 82 | 1005.8 |
| 20260830201803 | 65 | 145 | 0.9 | 1.7 | 0.00 | 0.00 | 0.00 | 82 | 1006.0 |
| 20260830200905 | 65 | 133 | 0.9 | 3.5 | 0.00 | 0.00 | 0.00 | 81 | 1005.9 |
| 20260830200003 | 65 | 141 | 0.9 | 4.3 | 0.00 | 0.00 | 0.00 | 80 | 1006.0 |
| 20260830195615 | 65 | 146 | 0.9 | 4.3 | 0.00 | 0.00 | 0.00 | 79 | 1006.1 |
| 20260830194717 | 66 | 175 | 0.9 | 6.1 | 0.00 | 0.00 | 0.00 | 79 | 1006.2 |
| 20260830193605 | 66 | 161 | 0.9 | 3.5 | 0.00 | 0.00 | 0.00 | 78 | 1006.3 |
| 20260830192705 | 66 | 164 | 0.9 | 4.3 | 0.00 | 0.00 | 0.00 | 78 | 1006.4 |
| 20260830191805 | 66 | 137 | 0.9 | 5.2 | 0.00 | 0.00 | 0.00 | 77 | 1006.5 |
| 20260830190905 | 66 | 140 | 0.9 | 6.1 | 0.00 | 0.00 | 0.00 | 76 | 1006.5 |
| 20260830190003 | 66 | 209 | 0.9 | 6.1 | 0.00 | 0.00 | 0.00 | 75 | 1006.6 |
| 20260830185406 | 66 | 191 | 0.9 | 4.3 | 0.00 | 0.00 | 0.00 | 75 | 1006.7 |
| 20260830184713 | 67 | 167 | 0.9 | 5.2 | 0.00 | 0.00 | 0.00 | 74 | 1006.7 |
| 20260830183603 | 67 | 213 | 1.7 | 7.0 | 0.00 | 0.00 | 0.00 | 74 | 1006.5 |
| 20260830182703 | 67 | 145 | 1.7 | 7.8 | 0.00 | 0.00 | 0.00 | 73 | 1006.7 |
| 20260830181806 | 68 | 165 | 1.7 | 7.8 | 0.00 | 0.00 | 0.00 | 73 | 1006.8 |
| 20260830180906 | 68 | 167 | 1.7 | 5.2 | 0.00 | 0.00 | 0.00 | 72 | 1006.7 |
| 20260830180003 | 68 | 169 | 1.7 | 7.0 | 0.00 | 0.00 | 0.00 | 71 | 1006.9 |
| 20260830175405 | 68 | 178 | 1.7 | 7.8 | 0.00 | 0.00 | 0.00 | 70 | 1007.0 |
| 20260830174503 | 68 | 163 | 1.7 | 4.3 | 0.00 | 0.00 | 0.00 | 69 | 1007.0 |
| 20260830173604 | 68 | 158 | 2.6 | 9.6 | 0.00 | 0.00 | 0.00 | 69 | 1007.0 |
| 20260830172703 | 69 | 186 | 1.7 | 6.1 | 0.00 | 0.00 | 0.00 | 68 | 1006.8 |
| 20260830172015 | 69 | 158 | 2.6 | 7.8 | 0.00 | 0.00 | 0.00 | 67 | 1006.8 |
| 20260830170903 | 69 | 218 | 2.6 | 9.6 | 0.00 | 0.00 | 0.00 | 67 | 1007.0 |
| 20260830170003 | 70 | 158 | 2.6 | 6.1 | 0.00 | 0.00 | 0.00 | 69 | 1006.9 |
| 20260830165405 | 70 | 150 | 2.6 | 7.0 | 0.00 | 0.00 | 0.00 | 68 | 1007.0 |
| 20260830164504 | 70 | 181 | 2.6 | 8.7 | 0.00 | 0.00 | 0.00 | 67 | 1006.9 |
| 20260830163606 | 71 | 162 | 2.6 | 7.8 | 0.00 | 0.00 | 0.00 | 66 | 1007.0 |
| 20260830162703 | 72 | 162 | 2.6 | 7.8 | 0.00 | 0.00 | 0.00 | 64 | 1007.0 |
| 20260830162016 | 72 | 173 | 2.6 | 8.7 | 0.00 | 0.00 | 0.00 | 64 | 1007.0 |
| 20260830160905 | 71 | 213 | 2.6 | 9.6 | 0.00 | 0.00 | 0.00 | 63 | 1007.1 |
| 20260830160006 | 71 | 188 | 2.6 | 7.8 | 0.00 | 0.00 | 0.00 | 62 | 1007.1 |
| 20260830155617 | 72 | 212 | 2.6 | 7.8 | 0.00 | 0.00 | 0.00 | 63 | 1007.2 |
| 20260830154503 | 72 | 222 | 1.7 | 7.0 | 0.00 | 0.00 | 0.00 | 62 | 1007.2 |
| 20260830153605 | 72 | 179 | 2.6 | 8.7 | 0.00 | 0.00 | 0.00 | 62 | 1007.3 |
| 20260830152704 | 71 | 203 | 2.6 | 7.0 | 0.00 | 0.00 | 0.00 | 64 | 1007.3 |
| 20260830152017 | 71 | 200 | 2.6 | 12.2 | 0.00 | 0.00 | 0.00 | 63 | 1007.3 |
| 20260830150905 | 71 | 169 | 2.6 | 8.7 | 0.00 | 0.00 | 0.00 | 64 | 1007.4 |
| 20260830150006 | 72 | 173 | 2.6 | 9.6 | 0.00 | 0.00 | 0.00 | 64 | 1007.5 |
| 20260830145405 | 72 | 164 | 2.6 | 9.6 | 0.00 | 0.00 | 0.00 | 64 | 1007.4 |
| 20260830144503 | 72 | 152 | 3.5 | 9.6 | 0.00 | 0.00 | 0.00 | 64 | 1007.5 |
| 20260830143603 | 72 | 172 | 3.5 | 10.4 | 0.00 | 0.00 | 0.00 | 63 | 1007.7 |
| 20260830142705 | 74 | 191 | 2.6 | 7.8 | 0.00 | 0.00 | 0.00 | 62 | 1007.7 |
| 20260830141805 | 74 | 156 | 2.6 | 7.8 | 0.00 | 0.00 | 0.00 | 64 | 1007.7 |
| 20260830140906 | 74 | 163 | 2.6 | 9.6 | 0.00 | 0.00 | 0.00 | 63 | 1007.7 |
| 20260830140217 | 73 | 169 | 2.6 | 9.6 | 0.00 | 0.00 | 0.00 | 64 | 1007.6 |
| 20260830135405 | 73 | 182 | 2.6 | 13.9 | 0.00 | 0.00 | 0.00 | 67 | 1007.7 |
| 20260830134716 | 72 | 147 | 2.6 | 7.8 | 0.00 | 0.00 | 0.00 | 69 | 1007.9 |
| 20260830133604 | 72 | 166 | 2.6 | 9.6 | 0.00 | 0.00 | 0.00 | 70 | 1008.0 |
| 20260830132703 | 71 | 196 | 1.7 | 7.0 | 0.00 | 0.00 | 0.00 | 72 | 1008.2 |
| 20260830132018 | 71 | 173 | 2.6 | 6.1 | 0.00 | 0.01 | 0.00 | 72 | 1008.4 |
| 20260830131115 | 71 | 157 | 2.6 | 7.8 | 0.00 | 0.01 | 0.00 | 72 | 1008.5 |
| 20260830130003 | 70 | 161 | 2.6 | 7.8 | 0.00 | 0.01 | 0.00 | 72 | 1008.6 |
| 20260830125403 | 70 | 164 | 2.6 | 7.8 | 0.00 | 0.01 | 0.00 | 73 | 1008.7 |
| 20260830124505 | 70 | 169 | 1.7 | 5.2 | 0.00 | 0.01 | 0.00 | 73 | 1008.8 |
| 20260830123814 | 70 | 165 | 1.7 | 7.0 | 0.00 | 0.01 | 0.00 | 72 | 1008.7 |
| 20260830122704 | 71 | 173 | 1.7 | 7.0 | 0.00 | 0.01 | 0.00 | 69 | 1008.6 |
| 20260830121803 | 72 | 148 | 1.7 | 7.8 | 0.00 | 0.01 | 0.00 | 66 | 1008.6 |
| 20260830120903 | 72 | 155 | 2.6 | 7.0 | 0.00 | 0.01 | 0.00 | 64 | 1008.6 |
| 20260830120004 | 73 | 159 | 1.7 | 7.0 | 0.00 | 0.01 | 0.00 | 62 | 1008.6 |
| 20260830115403 | 73 | 147 | 1.7 | 6.1 | 0.00 | 0.01 | 0.00 | 63 | 1008.5 |
| 20260830114717 | 73 | 188 | 0.9 | 4.3 | 0.00 | 0.01 | 0.00 | 61 | 1008.7 |
| 20260830113603 | 73 | 188 | 1.7 | 7.8 | 0.00 | 0.01 | 0.00 | 63 | 1008.7 |
| 20260830112917 | 73 | 191 | 1.7 | 7.0 | 0.00 | 0.01 | 0.00 | 62 | 1008.7 |
| 20260830111805 | 72 | 218 | 1.7 | 5.2 | 0.00 | 0.01 | 0.00 | 65 | 1008.9 |
| 20260830110903 | 72 | 177 | 1.7 | 5.2 | 0.00 | 0.02 | 0.00 | 65 | 1009.0 |
| 20260830110004 | 71 | 261 | 1.7 | 6.1 | 0.00 | 0.02 | 0.00 | 69 | 1009.1 |
| 20260830105404 | 71 | 267 | 1.7 | 6.1 | 0.00 | 0.02 | 0.00 | 67 | 1009.2 |
| 20260830104718 | 71 | 227 | 1.7 | 7.8 | 0.00 | 0.02 | 0.00 | 66 | 1009.2 |
| 20260830103605 | 72 | 221 | 1.7 | 6.1 | 0.00 | 0.02 | 0.00 | 67 | 1009.3 |
| 20260830102912 | 72 | 217 | 1.7 | 7.0 | 0.00 | 0.04 | 0.00 | 66 | 1009.3 |
| 20260830101804 | 72 | 169 | 1.7 | 7.8 | 0.00 | 0.04 | 0.00 | 66 | 1009.3 |
| 20260830100905 | 71 | 175 | 0.9 | 5.2 | 0.00 | 0.04 | 0.00 | 68 | 1009.2 |
| 20260830100005 | 71 | 236 | 1.7 | 6.1 | 0.00 | 0.05 | 0.00 | 68 | 1009.2 |
| 20260830095405 | 71 | 242 | 0.9 | 6.1 | 0.00 | 0.05 | 0.00 | 68 | 1009.5 |
| 20260830094505 | 71 | 253 | 1.7 | 6.1 | 0.00 | 0.05 | 0.00 | 69 | 1009.5 |
| 20260830093603 | 70 | 227 | 1.7 | 6.1 | 0.00 | 0.05 | 0.00 | 70 | 1009.5 |
| 20260830092703 | 70 | 240 | 0.9 | 3.5 | 0.00 | 0.05 | 0.00 | 71 | 1009.5 |
| 20260830091803 | 70 | 245 | 0.9 | 3.5 | 0.00 | 0.06 | 0.00 | 70 | 1009.6 |
| 20260830090903 | 69 | 232 | 0.9 | 3.5 | 0.00 | 0.06 | 0.00 | 71 | 1009.6 |
| 20260830090215 | 69 | 245 | 0.9 | 3.5 | 0.00 | 0.06 | 0.00 | 72 | 1009.7 |
| 20260830085403 | 68 | 242 | 0.9 | 6.1 | 0.00 | 0.06 | 0.00 | 74 | 1009.5 |
| 20260830084504 | 68 | 243 | 0.9 | 6.1 | 0.00 | 0.06 | 0.00 | 75 | 1009.6 |
| 20260830083603 | 67 | 237 | 0.9 | 6.1 | 0.00 | 0.06 | 0.00 | 77 | 1009.6 |